SFR135 FAPE-FACT

Flight info

Callsign SFR135
Flight time 1h 11m
Altitude 32000
Route OKRAV UQ49 ESRUK UQ51 GETEN GETEN1A
Aircraft B738/M-SDE2E3FGHIRWXY/LB1

Departure

Time 2026-04-20 12:29
Airport Chief Dawid Stuurman International Airport (FAPE)

Arrival

Time 2026-04-20 13:40
Airport Cape Town International Airport (FACT)
Time Latitude Longitude Altitude Speed Heading
2026-04-20 12:01 -33.98544 25.61048 211 ft 0 kts 327°
2026-04-20 12:21 -33.98549 25.61052 216 ft 2 kts 327°
2026-04-20 12:22 -33.98563 25.61062 212 ft 2 kts 328°
2026-04-20 12:22 -33.98577 25.61073 219 ft 2 kts 332°
2026-04-20 12:22 -33.98593 25.61079 216 ft 2 kts 22°
2026-04-20 12:22 -33.98601 25.61071 212 ft 1 kts 58°
2026-04-20 12:24 -33.98588 25.61096 213 ft 8 kts 58°
2026-04-20 12:24 -33.98539 25.61191 215 ft 18 kts 58°
2026-04-20 12:25 -33.98476 25.61314 217 ft 17 kts 58°
2026-04-20 12:25 -33.98423 25.61445 214 ft 17 kts 68°
2026-04-20 12:25 -33.98363 25.61567 212 ft 17 kts 56°
2026-04-20 12:25 -33.98295 25.61703 214 ft 17 kts 58°
2026-04-20 12:26 -33.98237 25.61819 213 ft 16 kts 67°
2026-04-20 12:26 -33.98279 25.61914 220 ft 7 kts 148°
2026-04-20 12:26 -33.98280 25.61915 220 ft 0 kts 148°
2026-04-20 12:27 -33.98310 25.61937 215 ft 13 kts 148°
2026-04-20 12:28 -33.98396 25.61913 211 ft 12 kts 237°
2026-04-20 12:28 -33.98492 25.61729 213 ft 60 kts 238°
2026-04-20 12:28 -33.98861 25.61018 218 ft 137 kts 238°
2026-04-20 12:28 -33.99444 25.59884 653 ft 174 kts 239°
2026-04-20 12:29 -34.00120 25.58600 1578 ft 182 kts 236°
2026-04-20 12:29 -34.00848 25.57395 2709 ft 181 kts 236°
2026-04-20 12:29 -34.01664 25.56124 3084 ft 206 kts 236°
2026-04-20 12:29 -34.02581 25.54724 3660 ft 216 kts 243°
2026-04-20 12:30 -34.02938 25.53014 4255 ft 218 kts 274°
2026-04-20 12:30 -34.02831 25.51093 4784 ft 236 kts 275°
2026-04-20 12:30 -34.02716 25.49093 5662 ft 241 kts 275°
2026-04-20 12:30 -34.02611 25.47093 6661 ft 241 kts 274°
2026-04-20 12:31 -34.02516 25.45050 7434 ft 246 kts 273°
2026-04-20 12:31 -34.02422 25.42979 8298 ft 249 kts 273°
2026-04-20 12:31 -34.02333 25.40886 9157 ft 252 kts 272°
2026-04-20 12:31 -34.02247 25.38755 9967 ft 257 kts 272°
2026-04-20 12:32 -34.02161 25.36563 10473 ft 272 kts 272°
2026-04-20 12:32 -34.02069 25.34179 10651 ft 297 kts 272°
2026-04-20 12:32 -34.01972 25.31602 10831 ft 320 kts 272°
2026-04-20 12:32 -34.01870 25.28865 11267 ft 332 kts 272°
2026-04-20 12:33 -34.01767 25.26069 11995 ft 335 kts 272°
2026-04-20 12:33 -34.01662 25.23252 12784 ft 337 kts 272°
2026-04-20 12:33 -34.01558 25.20424 13537 ft 339 kts 273°
2026-04-20 12:33 -34.01452 25.17569 14212 ft 342 kts 273°
2026-04-20 12:34 -34.01346 25.14712 14928 ft 343 kts 273°
2026-04-20 12:34 -34.01238 25.11831 15626 ft 344 kts 273°
2026-04-20 12:34 -34.01130 25.08954 16322 ft 345 kts 273°
2026-04-20 12:34 -34.01020 25.06046 16959 ft 348 kts 274°
2026-04-20 12:35 -34.00908 25.03126 17617 ft 350 kts 274°
2026-04-20 12:35 -34.00796 25.00192 18274 ft 351 kts 274°
2026-04-20 12:35 -34.00682 24.97241 18822 ft 353 kts 274°
2026-04-20 12:35 -34.00567 24.94282 19369 ft 355 kts 274°
2026-04-20 12:36 -34.00451 24.91296 19907 ft 358 kts 274°
2026-04-20 12:36 -34.00335 24.88337 20431 ft 359 kts 274°
2026-04-20 12:36 -34.00215 24.85315 20937 ft 362 kts 274°
2026-04-20 12:36 -34.00094 24.82277 21458 ft 364 kts 274°
2026-04-20 12:37 -33.99972 24.79225 21955 ft 366 kts 274°
2026-04-20 12:37 -33.99849 24.76154 22441 ft 368 kts 274°
2026-04-20 12:37 -33.99724 24.73064 22913 ft 370 kts 274°
2026-04-20 12:37 -33.99598 24.69955 23368 ft 373 kts 274°
2026-04-20 12:38 -33.99470 24.66825 23768 ft 375 kts 274°
2026-04-20 12:38 -33.99340 24.63682 24184 ft 376 kts 274°
2026-04-20 12:38 -33.99214 24.60530 24580 ft 377 kts 274°
2026-04-20 12:38 -33.99195 24.57364 24946 ft 380 kts 271°
2026-04-20 12:39 -33.99295 24.50967 25659 ft 383 kts 271°
2026-04-20 12:39 -33.99357 24.47748 26028 ft 385 kts 271°
2026-04-20 12:39 -33.99417 24.44519 26387 ft 386 kts 271°
2026-04-20 12:40 -33.99472 24.41278 26724 ft 388 kts 271°
2026-04-20 12:40 -33.99523 24.38031 27083 ft 388 kts 271°
2026-04-20 12:40 -33.99571 24.34787 27685 ft 384 kts 271°
2026-04-20 12:40 -33.99617 24.31572 28182 ft 384 kts 271°
2026-04-20 12:41 -33.99660 24.28361 28635 ft 383 kts 271°
2026-04-20 12:41 -33.99702 24.25206 29130 ft 380 kts 271°
2026-04-20 12:41 -33.99743 24.22032 29665 ft 378 kts 272°
2026-04-20 12:41 -33.99783 24.18878 30136 ft 376 kts 272°
2026-04-20 12:42 -33.99822 24.15738 30530 ft 374 kts 272°
2026-04-20 12:42 -33.99859 24.12612 30923 ft 372 kts 272°
2026-04-20 12:42 -33.99895 24.09502 31260 ft 372 kts 272°
2026-04-20 12:42 -33.99931 24.06377 31562 ft 372 kts 272°
2026-04-20 12:43 -33.99966 24.03262 31877 ft 372 kts 272°
2026-04-20 12:43 -34.00033 23.96989 31980 ft 376 kts 272°
2026-04-20 12:44 -34.00098 23.90692 31983 ft 374 kts 272°
2026-04-20 12:44 -34.00161 23.84442 31988 ft 372 kts 272°
2026-04-20 12:45 -34.00219 23.78221 31985 ft 371 kts 272°
2026-04-20 12:45 -34.00274 23.72008 31979 ft 371 kts 272°
2026-04-20 12:46 -34.00325 23.65783 31984 ft 372 kts 272°
2026-04-20 12:46 -34.00373 23.59537 31986 ft 373 kts 272°
2026-04-20 12:47 -34.00415 23.53261 31987 ft 375 kts 272°
2026-04-20 12:47 -34.00448 23.48035 31989 ft 376 kts 272°
2026-04-20 12:48 -34.00488 23.41718 31981 ft 377 kts 272°
2026-04-20 12:48 -34.00528 23.35381 31983 ft 379 kts 272°
2026-04-20 12:49 -34.00562 23.29027 31983 ft 379 kts 272°
2026-04-20 12:49 -34.00596 23.22664 31979 ft 380 kts 272°
2026-04-20 12:50 -34.00625 23.16292 31982 ft 380 kts 272°
2026-04-20 12:50 -34.00651 23.09921 31979 ft 381 kts 272°
2026-04-20 12:51 -34.00673 23.03541 31973 ft 381 kts 272°
2026-04-20 12:51 -34.00691 22.97163 31982 ft 380 kts 272°
2026-04-20 12:52 -34.00706 22.90839 31977 ft 379 kts 273°
2026-04-20 12:52 -34.00716 22.84483 31972 ft 379 kts 273°
2026-04-20 12:53 -34.00723 22.78084 31983 ft 379 kts 273°
2026-04-20 12:53 -34.00728 22.71776 31982 ft 379 kts 273°
2026-04-20 12:54 -34.00731 22.65416 31985 ft 380 kts 273°
2026-04-20 12:54 -34.00729 22.59053 31990 ft 380 kts 273°
2026-04-20 12:55 -34.00724 22.52685 31999 ft 380 kts 273°
2026-04-20 12:55 -34.00716 22.46308 31998 ft 381 kts 273°
2026-04-20 12:56 -34.00705 22.39913 31996 ft 382 kts 273°
2026-04-20 12:56 -34.00686 22.33497 31999 ft 383 kts 273°
2026-04-20 12:57 -34.00655 22.27065 31992 ft 384 kts 273°
2026-04-20 12:57 -34.00620 22.20621 31988 ft 385 kts 273°
2026-04-20 12:58 -34.00584 22.14162 31986 ft 386 kts 273°
2026-04-20 12:58 -34.00545 22.07702 31993 ft 386 kts 273°
2026-04-20 12:59 -34.00502 22.01234 31981 ft 386 kts 273°
2026-04-20 12:59 -34.00453 21.94766 31981 ft 386 kts 273°
2026-04-20 13:00 -34.00406 21.88339 31982 ft 386 kts 273°
2026-04-20 13:00 -34.00354 21.81867 31973 ft 386 kts 273°
2026-04-20 13:01 -34.00298 21.75386 31977 ft 387 kts 273°
2026-04-20 13:01 -34.00239 21.68905 31975 ft 387 kts 273°
2026-04-20 13:02 -34.00175 21.62413 31974 ft 387 kts 273°
2026-04-20 13:02 -34.00109 21.55927 31977 ft 388 kts 273°
2026-04-20 13:03 -34.00039 21.49430 31981 ft 388 kts 273°
2026-04-20 13:03 -33.99967 21.42932 31976 ft 388 kts 273°
2026-04-20 13:04 -33.99889 21.36432 31981 ft 388 kts 274°
2026-04-20 13:04 -33.99808 21.29935 31985 ft 388 kts 273°
2026-04-20 13:05 -33.99719 21.23433 31987 ft 389 kts 274°
2026-04-20 13:05 -33.99627 21.16918 31987 ft 389 kts 274°
2026-04-20 13:06 -33.99536 21.10399 31993 ft 389 kts 274°
2026-04-20 13:06 -33.99445 21.03869 31986 ft 390 kts 273°
2026-04-20 13:07 -33.99358 20.97324 31979 ft 391 kts 273°
2026-04-20 13:07 -33.99258 20.90807 31976 ft 392 kts 273°
2026-04-20 13:08 -33.99152 20.84253 31976 ft 392 kts 273°
2026-04-20 13:08 -33.99044 20.77687 31984 ft 392 kts 273°
2026-04-20 13:09 -33.98936 20.71201 31971 ft 376 kts 274°
2026-04-20 13:09 -33.98826 20.64970 31970 ft 370 kts 274°
2026-04-20 13:09 -33.98768 20.61856 31768 ft 375 kts 274°
2026-04-20 13:10 -33.98708 20.58733 31477 ft 370 kts 274°
2026-04-20 13:10 -33.98651 20.55652 31086 ft 365 kts 274°
2026-04-20 13:10 -33.98593 20.52614 30636 ft 362 kts 274°
2026-04-20 13:10 -33.98534 20.49593 30214 ft 359 kts 274°
2026-04-20 13:11 -33.98475 20.46599 29761 ft 356 kts 274°
2026-04-20 13:11 -33.98416 20.43624 29294 ft 352 kts 274°
2026-04-20 13:11 -33.98358 20.40695 28852 ft 349 kts 274°
2026-04-20 13:11 -33.98299 20.37789 28434 ft 345 kts 274°
2026-04-20 13:12 -33.98240 20.34910 27985 ft 342 kts 274°
2026-04-20 13:12 -33.98180 20.32059 27567 ft 339 kts 274°
2026-04-20 13:12 -33.98121 20.29236 27148 ft 336 kts 274°
2026-04-20 13:12 -33.98061 20.26427 26740 ft 334 kts 274°
2026-04-20 13:13 -33.98001 20.23638 26327 ft 332 kts 274°
2026-04-20 13:13 -33.97941 20.20861 25927 ft 330 kts 274°
2026-04-20 13:13 -33.97880 20.18107 25523 ft 328 kts 274°
2026-04-20 13:13 -33.97819 20.15366 25120 ft 326 kts 274°
2026-04-20 13:14 -33.97758 20.12644 24726 ft 325 kts 274°
2026-04-20 13:14 -33.97697 20.09919 24326 ft 324 kts 274°
2026-04-20 13:14 -33.97635 20.07209 23930 ft 323 kts 273°
2026-04-20 13:14 -33.97573 20.04508 23512 ft 323 kts 274°
2026-04-20 13:15 -33.97511 20.01837 23063 ft 322 kts 273°
2026-04-20 13:15 -33.97448 19.99148 22637 ft 320 kts 273°
2026-04-20 13:15 -33.97385 19.96475 22232 ft 318 kts 273°
2026-04-20 13:15 -33.97321 19.93822 21832 ft 316 kts 273°
2026-04-20 13:16 -33.97258 19.91181 21447 ft 314 kts 273°
2026-04-20 13:16 -33.97195 19.88558 21066 ft 312 kts 273°
2026-04-20 13:16 -33.97130 19.85949 20683 ft 311 kts 273°
2026-04-20 13:16 -33.97104 19.83354 20306 ft 310 kts 268°
2026-04-20 13:17 -33.97432 19.80786 19935 ft 310 kts 260°
2026-04-20 13:17 -33.98052 19.78260 19267 ft 321 kts 251°
2026-04-20 13:17 -33.99031 19.75811 18748 ft 326 kts 246°
2026-04-20 13:17 -34.00083 19.73387 18302 ft 327 kts 245°
2026-04-20 13:18 -34.01137 19.70972 17876 ft 324 kts 245°
2026-04-20 13:18 -34.02176 19.68569 17468 ft 322 kts 246°
2026-04-20 13:18 -34.03197 19.66185 17088 ft 319 kts 246°
2026-04-20 13:18 -34.04207 19.63817 16726 ft 316 kts 246°
2026-04-20 13:19 -34.05162 19.61442 16346 ft 313 kts 253°
2026-04-20 13:19 -34.05572 19.58911 15999 ft 307 kts 269°
2026-04-20 13:19 -34.05457 19.56351 15616 ft 305 kts 275°
2026-04-20 13:19 -34.05228 19.53814 15235 ft 304 kts 276°
2026-04-20 13:20 -34.04987 19.51293 14867 ft 302 kts 276°
2026-04-20 13:20 -34.04758 19.48786 14511 ft 300 kts 276°
2026-04-20 13:20 -34.04542 19.46298 14295 ft 294 kts 275°
2026-04-20 13:20 -34.04338 19.43885 14165 ft 285 kts 275°
2026-04-20 13:21 -34.04141 19.41544 14045 ft 277 kts 275°
2026-04-20 13:21 -34.03948 19.39258 13792 ft 274 kts 275°
2026-04-20 13:21 -34.03753 19.36978 13454 ft 273 kts 275°
2026-04-20 13:21 -34.03558 19.34709 13147 ft 271 kts 275°
2026-04-20 13:22 -34.03364 19.32456 12837 ft 270 kts 275°
2026-04-20 13:22 -34.03170 19.30212 12548 ft 269 kts 275°
2026-04-20 13:22 -34.02977 19.27978 12250 ft 267 kts 275°
2026-04-20 13:22 -34.02785 19.25759 11947 ft 265 kts 276°
2026-04-20 13:23 -34.02594 19.23559 11660 ft 263 kts 276°
2026-04-20 13:23 -34.02403 19.21374 11360 ft 261 kts 276°
2026-04-20 13:23 -34.02214 19.19199 11077 ft 260 kts 276°
2026-04-20 13:23 -34.02028 19.17067 10799 ft 259 kts 276°
2026-04-20 13:24 -34.01840 19.14918 10511 ft 257 kts 276°
2026-04-20 13:24 -34.01653 19.12782 10250 ft 255 kts 276°
2026-04-20 13:24 -34.01469 19.10695 10145 ft 246 kts 276°
2026-04-20 13:24 -34.01292 19.08678 10011 ft 239 kts 276°
2026-04-20 13:25 -34.01116 19.06688 9730 ft 237 kts 276°
2026-04-20 13:25 -34.00943 19.04723 9477 ft 235 kts 276°
2026-04-20 13:25 -34.00771 19.02776 9242 ft 234 kts 276°
2026-04-20 13:25 -34.00598 19.00829 8976 ft 233 kts 276°
2026-04-20 13:26 -34.00426 18.98886 8701 ft 235 kts 277°
2026-04-20 13:26 -34.00251 18.96924 8461 ft 237 kts 277°
2026-04-20 13:26 -34.00072 18.94915 8205 ft 244 kts 277°
2026-04-20 13:26 -33.99890 18.92880 7873 ft 244 kts 277°
2026-04-20 13:27 -33.99709 18.90843 7596 ft 245 kts 277°
2026-04-20 13:27 -33.99525 18.88798 7308 ft 246 kts 277°
2026-04-20 13:27 -33.99343 18.86762 7150 ft 240 kts 277°
2026-04-20 13:27 -33.99166 18.84785 7017 ft 234 kts 277°
2026-04-20 13:28 -33.98993 18.82865 6903 ft 227 kts 278°
2026-04-20 13:28 -33.98824 18.80996 6802 ft 222 kts 278°
2026-04-20 13:28 -33.98649 18.79068 6687 ft 217 kts 278°
2026-04-20 13:28 -33.98661 18.77264 6452 ft 218 kts 257°
2026-04-20 13:29 -33.99088 18.76174 6380 ft 218 kts 238°
2026-04-20 13:29 -34.00267 18.74965 6164 ft 226 kts 210°
2026-04-20 13:29 -34.02366 18.74631 5857 ft 239 kts 176°
2026-04-20 13:29 -34.03458 18.74843 5700 ft 241 kts 174°
2026-04-20 13:30 -34.05100 18.75241 5488 ft 239 kts 172°
2026-04-20 13:30 -34.06726 18.75679 5305 ft 239 kts 171°
2026-04-20 13:30 -34.08336 18.76118 5158 ft 233 kts 172°
2026-04-20 13:30 -34.09886 18.76521 5009 ft 222 kts 173°
2026-04-20 13:31 -34.11368 18.76885 4907 ft 215 kts 173°
2026-04-20 13:31 -34.12823 18.77257 4820 ft 213 kts 173°
2026-04-20 13:31 -34.14270 18.77603 4771 ft 211 kts 175°
2026-04-20 13:31 -34.15707 18.77919 4751 ft 210 kts 176°
2026-04-20 13:32 -34.17153 18.77955 4535 ft 208 kts 207°
2026-04-20 13:32 -34.18181 18.76911 4306 ft 188 kts 249°
2026-04-20 13:32 -34.18503 18.75463 4081 ft 173 kts 271°
2026-04-20 13:32 -34.18351 18.74073 3819 ft 163 kts 288°
2026-04-20 13:33 -34.18029 18.72791 3553 ft 156 kts 290°
2026-04-20 13:33 -34.17713 18.71579 3297 ft 148 kts 290°
2026-04-20 13:33 -34.17414 18.70436 3202 ft 136 kts 290°
2026-04-20 13:33 -34.17119 18.69306 3226 ft 145 kts 290°
2026-04-20 13:34 -34.16820 18.68160 3261 ft 137 kts 290°
2026-04-20 13:34 -34.16295 18.67293 3246 ft 130 kts 327°
2026-04-20 13:34 -34.15485 18.66832 3262 ft 130 kts 328°
2026-04-20 13:34 -34.14659 18.66359 3237 ft 134 kts 332°
2026-04-20 13:35 -34.13791 18.65932 3082 ft 135 kts 333°
2026-04-20 13:35 -34.12940 18.65526 3062 ft 133 kts 335°
2026-04-20 13:35 -34.12059 18.65173 2907 ft 133 kts 338°
2026-04-20 13:35 -34.11172 18.64860 2733 ft 131 kts 340°
2026-04-20 13:36 -34.10300 18.64571 2551 ft 130 kts 339°
2026-04-20 13:36 -34.09423 18.64288 2379 ft 130 kts 340°
2026-04-20 13:36 -34.08547 18.64007 2196 ft 130 kts 340°
2026-04-20 13:36 -34.07688 18.63734 2025 ft 126 kts 340°
2026-04-20 13:37 -34.06837 18.63462 1855 ft 128 kts 340°
2026-04-20 13:37 -34.05967 18.63185 1680 ft 130 kts 340°
2026-04-20 13:37 -34.05096 18.62908 1487 ft 130 kts 341°
2026-04-20 13:37 -34.04214 18.62628 1322 ft 131 kts 341°
2026-04-20 13:38 -34.03321 18.62317 1100 ft 134 kts 340°
2026-04-20 13:38 -34.02413 18.62024 891 ft 136 kts 343°
2026-04-20 13:38 -34.01496 18.61745 729 ft 137 kts 343°
2026-04-20 13:38 -34.00569 18.61443 586 ft 137 kts 342°
2026-04-20 13:39 -33.99669 18.61167 404 ft 130 kts 343°
2026-04-20 13:39 -33.98847 18.60913 211 ft 113 kts 341°
2026-04-20 13:39 -33.98159 18.60693 153 ft 86 kts 347°
2026-04-20 13:39 -33.97685 18.60544 152 ft 71 kts 345°
2026-04-20 13:40 -33.97249 18.60405 151 ft 52 kts 342°
2026-04-20 13:40 -33.97104 18.60223 155 ft 17 kts 285°
2026-04-20 13:40 -33.97076 18.60103 156 ft 11 kts 286°
2026-04-20 13:40 -33.97069 18.60074 156 ft 0 kts 286°
2026-04-20 13:41 -33.97065 18.60059 156 ft 8 kts 286°
2026-04-20 13:41 -33.97060 18.59992 156 ft 4 kts 265°
2026-04-20 13:41 -33.97062 18.59957 156 ft 7 kts 276°
2026-04-20 13:41 -33.97070 18.59884 156 ft 7 kts 254°
2026-04-20 13:42 -33.97074 18.59861 156 ft 0 kts 255°